National Weather Service United States Department of Commerce

Observations from across/near northern Michigan

Marine Observations

Michigan Hourly Observations

 

Yesterday's high, low and precipitation reports from across northern Michigan

Northern Michigan Temperatures and Precipitation

 

Observation Text Products


522
SXUS83 KAPX 171026
OMRAPX

Marine Observations
National Weather Service Gaylord MI
526 AM EST Wed Jan 17 2018

WIND DATA (KTS) WAVES
SITE DATE/TIME DIR SPEED GUST (FT) SITE NAME
--------------------------------------------------

Lake Superior/St Marys River

GRMM4 170940Z 240 13 17 Grand Marais
WFPM4 170940Z 230 7 14 Whitefish Point
PTIM4 171000Z 270 1 6 Point Iroquois
CYAM 171000Z 190 4 SOO (Canada)
KANJ 170955Z 230 7 Sault Ste Marie
SWPM4 171000Z 70 8 10 S.W. Pier
LTRM4 171000Z 220 4 8 Little Rapids
RCKM4 171000Z 150 2 Rock Cut
WNEM4 171000Z 160 4 5 West Nebish Island

Lake Huron

DTLM4 171000Z 240 5 8 DeTour Village
KDRM 171015Z CALM Drummond Island
KMCD 171015Z 210 8 Mackinac Island
MACM4 171000Z 200 8 10 Mackinac City
KSLH 171015Z 190 5 Cheboygan Airport
CYGM4 170955Z 190 5 9 Cheboygan Marina
SRLM4 170930Z 210 18 Spectacle Reef Light
KPZQ 171015Z 220 7 Rogers City
PRIM4 170955Z 230 12 15 Presque Isle Light
KAPN 171010Z 200 5 Alpena Guard Base
APNM4 171010Z 260 7 9 Alpena Harbor Light
TBIM4 170950Z 240 14 15 Thunder Bay Island
SPTM4 170955Z 250 4 9 Sturgeon Point Light
KOSC 171015Z 240 9 Oscoda
TAWM4 170940Z 270 5 6 Tawas Point
GSLM4 170940Z 240 12 Gravelly Shoals
KP58 170951Z 230 6 Port Hope

Lake Michigan

KISQ 171015Z 230 6 Manistique
PNLM4 171000Z 260 10 13 Port Inland
NABM4 170940Z 270 5 10 Naubinway
KSJX 171015Z 250 19 24 St James
KPLN 170954Z 170 5 Pellston
KMGN 171015Z 210 8 Harbor Springs
KCVX 171015Z 230 12 20 Charlevoix
GTLM4 171000Z 250 26 Grand Traverse Light
KFKS 171015Z 270 10 16 Frankfort
MEEM4 170940Z 260 19 23 Manistee Harbor
BSBM4 170940Z 250 18 23 Big Sable Point
LDTM4 171000Z 270 12 18 Ludington
KLDM 171015Z 270 10 16 Ludington Airport



000
ASUS43 KDTX 171110
RWRMI
MICHIGAN HOURLY REGIONAL WEATHER ROUNDUP
NATIONAL WEATHER SERVICE DETROIT/PONTIAC MI
600 AM EST WED JAN 17 2018

NOTE: "FAIR" INDICATES FEW OR NO CLOUDS BELOW 12,000 FEET WITH NO
SIGNIFICANT WEATHER AND/OR OBSTRUCTION TO VISIBILITY.

MIZ047>049-052>055-059>063-066>070-074>076-081>083-171200-
SOUTHEAST LOWER MICHIGAN

CITY SKY/WX TMP DP RH WIND PRES REMARKS
ADRIAN FAIR -2 -4 91 W6 30.47S WCI -14
ALMA CLOUDY 11 7 84 SW6 30.41F WCI 2
ANN ARBOR FAIR -1 -4 87 SW3 30.44S FOG
BAD AXE MOCLDY -2 -5 84 S3 30.39S
CARO CLOUDY 0 -3 86 CALM 30.41S
DETROIT CITY FAIR 5 2 87 SW6 30.45S WCI -6
DETROIT FAIR 4 0 83 S7 30.47S WCI -8
FLINT MOCLDY 3 0 87 SW6 30.43R WCI -8
GROSSE ILE FAIR 5 2 86 SW7 30.46S WCI -7
HILLSDALE MOCLDY 1 -4 78 CALM 30.42R FOG
HOWELL CLOUDY 3 1 90 SW5 30.42S WCI -7

CITY SKY/WX TMP DP RH WIND PRES REMARKS
JACKSON FAIR 1 -3 83 SW6 30.43S WCI -10
LAMBERTVILLE FAIR 4 0 86 SW3 30.49S
LANSING CLOUDY 5 2 87 SW7 30.44S WCI -7
LAPEER FAIR -2 -6 81 W3 30.41S
MASON CLOUDY 0 -6 78 CALM 30.43S
MONROE FAIR 3 -2 80 SW6 30.47S WCI -8
MT. CLEMENS FAIR 3 1 91 SW6 N/A WCI -8
PONTIAC MOCLDY 3 0 87 SW3 30.40R FOG
PORT HOPE N/A 4 0 83 SW7 30.37S WCI -8
PORT HURON FAIR -2 -6 84 CALM 30.43S
TRI CITIES CLOUDY 7 4 87 SW8 30.42S WCI -6
MIDLAND CLOUDY 8 5 86 CALM 30.41S
TROY FAIR 6 3 87 SW3 30.45S
SAGINAW HB CLOUDY 7 5 92 SW6 30.42S WCI -3
$$
MIZ043>046-050>051-056>058-064>065-071>073-077>080-171200-
SOUTHWEST LOWER MICHIGAN

CITY SKY/WX TMP DP RH WIND PRES REMARKS
BATTLE CREEK CLOUDY 7 4 87 SW5 30.44S WCI -2
BENTON HARBOR LGT SNOW 16 12 84 S5 30.47F FOG WCI 9
BIG RAPIDS FLURRIES 15 10 81 SW7 30.37S WCI 5
COLDWATER CLOUDY 5 3 90 SW3 30.45S
FREMONT CLOUDY 14 9 78 SW5 30.41R WCI 7
HOLLAND MOCLDY 14 8 77 S8 30.44F WCI 3
GRAND RAPIDS CLOUDY 13 7 77 SW6 30.43F WCI 4
IONIA CLOUDY 10 7 89 SW8 30.41F WCI -3
KALAMAZOO CLOUDY 8 4 83 S3 30.45S FOG
LUDINGTON FAIR 21 15 75 W9G16 30.40R WCI 11
MARSHALL CLOUDY 3 -1 85 CALM 30.44S
MOUNT PLEASANT CLOUDY 15 7 70 SW6 30.39S WCI 6
MUSKEGON CLOUDY 24 12 60 W13G21 30.43S WCI 12
SOUTH HAVEN LGT SNOW 13 10 87 CALM 30.47S
$$
MIZ016>042-171200-
NORTHERN LOWER MICHIGAN

CITY SKY/WX TMP DP RH WIND PRES REMARKS
ALPENA MOCLDY 7 5 91 SW5 30.31F WCI -2
BEAVER ISLAND FAIR 22 13 67 SW20G26 30.25F WCI 7
BELLAIRE CLOUDY 17 14 90 S3 30.32F
CADILLAC CLOUDY 12 10 91 SW6 30.30S WCI 3
CHARLEVOIX CLOUDY 24 15 70 SW14 30.31S WCI 11
FRANKFORT FAIR 23 16 72 W10G16 30.35S WCI 13
GAYLORD MOCLDY 11 10 96 SW10 30.25F WCI -3
GRAYLING FLURRIES 13 9 83 SW5 30.30F WCI 5
HARBOR SPRINGS CLOUDY 18 14 83 SW9G16 30.27S WCI 7
HOUGHTON LAKE CLOUDY 12 8 84 SW8 30.32F WCI 0
MANISTEE FAIR 21 14 74 W15 30.37S WCI 8
OSCODA CLOUDY 4 0 82 SW10 30.36S WCI -11
PELLSTON CLOUDY 15 12 88 S6 30.26F WCI 6
ROGERS CITY FAIR 11 7 85 SW8 30.29F WCI -1
TRAVERSE CITY MOCLDY 17 11 77 VRB3 30.32F
$$
MIZ007>008-015-171200-
EASTERN UPPER MICHIGAN

CITY SKY/WX TMP DP RH WIND PRES REMARKS
KINROSS CLOUDY 14 10 84 W5 30.22F WCI 6
MACKINAC ISLAN CLOUDY 18 14 84 SW9 30.23F WCI 7
NEWBERRY MOCLDY 12 7 83 SW9 30.20F WCI -1
S. S. MARIE CLOUDY 15 9 76 SW7 30.20F WCI 5
MUNISING N/A 11 5 77 SW13G18 30.19F WCI -4
$$
MIZ004>006-011>014-085-171200-
CENTRAL UPPER MICHIGAN

CITY SKY/WX TMP DP RH WIND PRES REMARKS
MANISTIQUE FAIR 10 5 80 SW6 30.26R WCI 1
ESCANABA FAIR 6 3 87 SW8 30.29S WCI -7
MENOMINEE MOCLDY 6 3 87 W7 30.35S WCI -6
SAWYER-GWINN CLOUDY 10 3 75 SW12 30.16F WCI -5
$$
MIZ001>003-009>011-084-171200-
WESTERN UPPER MICHIGAN

CITY SKY/WX TMP DP RH WIND PRES REMARKS
IRON MOUNTAIN CLOUDY 11 1 64 W5 30.22F WCI 3
HOUGHTON MIX PCPN 14 2 58 W25G35 30.10F WCI -5
COPPER HARBOR N/A 19 10 68 VRB6 30.09F WCI 11
IRONWOOD FAIR 9 -1 64 SW15G23 30.21F WCI -8
$$

ABBREVIATIONS USED IN REMARKS
TC - TEMPERATURE IN CELSIUS
WCI - WIND CHILL INDEX
HX - HEAT INDEX
VSB - VISIBILITY




000
ASUS63 KAPX 170311
RTPAPX


Eastern Upper/Northern Lower Michigan Temperature and Precip Summary
National Weather Service Gaylord MI
1011 PM EST Tue Jan 16 2018

18 hour High/Low Temperature ending 7 pm EST
24 hour Precipitation/Snowfall ending 7 pm EST
Snow Depth Observed at 7 pm EST

.BR APX 0116 ES DH19/TAIRZS/TAIRZI/PPDRZZ/SFDRZZ/SDIRZZ
:..................................................................
: MAX MIN 24 HR SNOW SNOW
:ID LOCATION TEMP TEMP PRECIP FALL DEPTH
:..................................................................
ANJ : Sault Ste Marie : 17 / 2 / 0.00 / T / 15
APN : Alpena : 19 / 9 / 0.07 / 3.0 / 9
HTL : Houghton Lake : 19 / 2 / T / T / 3
PLN : Pellston : 17 / -1 / 0.01 / /
TVC : Traverse City : 20 / 15 / T / /
GLR : Gaylord : 15 / 5 / T / /
.END

Cooperative Observations
Temperature/Precipitation/Snowfall values are for 24 hour period
ending 7 pm EST. Snow Depth is observed at 7 pm EST.
...................................................................
OBS MAX MIN SNOW SNOW
ID LOCATION TIME TEMP TEMP PCPN FALL DEPTH
...................................................................
MAPM4: Maple City 1E :DH1900/ 20 / 9 / 0.04 / 1.5 / 6.0
ONAM4: Onaway 4N :DH1800/ 18 / 7 / 0.19 / 6.1 / 7.0

These data are preliminary and have not undergone final quality
control by the National Centers for Environmental Information.
Therefore...these data are subject to revision. Final
and certified climate data can be accessed at www.ncdc.noaa.gov.

&&

The following are supplemental temperature and precipitation data.
This includes data which are received from non-National Weather
Service maintained observing systems...as well as reports from
public weather spotters. Data is only partially quality controlled
and is not suitable for official climatological records.

.BR APX 0116 ES DH19/TAIRZS/TAIRZI
:
:Automated Temperature Data--18 hr High/Low ending 7 pm EST
:..................................................................
: MAX MIN
:ID LOCATION TEMP TEMP
:..................................................................
:
ERY : Newberry : 16 / 2
CIU : Kinross : 20 / 2
MCD : Mackinac Island : 17 / 10
DRM : Drummond Island : 12 / -6
SJX : Beaver Island : 18 / 3
SLH : Cheboygan : 17 / 5
PZQ : Rogers City : 18 / 12
CVX : Charlevoix : 18 / 10
MGN : Harbor Springs : 17 / 6
ACB : Bellaire : 19 / 2
FKS : Frankfort : 22 / 9
GOV : Grayling AAF : 17 / 0
MBL : Manistee : 24 / -4
CAD : Cadillac : 18 / -2
Y31 : West Branch : 19 / 8
OSC : Oscoda : 21 / -1
LDM : Ludington : 22 / 5
RQB : Big Rapids : 20 / 10
MOP : Mount Pleasant : 24 / 6
IKW : Midland : 22 / 2
.END

U.S. Forest Service Remote Automated Weather Stations (RAWS)
Data is only partially quality controlled
18 hour High/Low Temperature ending 7 pm EST
Minimum Relative Humidity over past 18 hours
12/24 hour Precipitation ending 7 pm EST
...................................................................
MAX MIN MIN 12 HR 24 HR
ID LOCATION TEMP TEMP RH PRECIP PRECIP
...................................................................
AGRM4: Alger RAWS : 21 / 3 / 58 / 0.00 / 0.00
ATAM4: Atlanta RAWS : 17 / -5 / 65 / 0.00 / 0.00
BCYM4: Barton City RAWS : 20 / 5 / 68 / 0.00 / 0.00
GYGM4: Grayling RAWS : 19 / 5 / 55 / 0.00 / 0.00
INDM4: Indian River RAWS : 20 / -4 / 54 / 0.00 / 0.00
MMOM4: Mio RAWS : 18 / 0 / 63 / 0.00 / 0.00
MTNM4: Manton RAWS : M / M / M / M / M
NMIM4: N Manitou Island : 22 / 17 / 54 / 0.00 / 0.00
RACM4: Raco RAWS : 16 / -3 / 56 / 0.00 / 0.00
REXM4: Rexton RAWS : 20 / -8 / 52 / 0.00 / 0.00
RSCM4: Roscommon RAWS : 19 / 0 / M / 0.00 / 0.00
RYDM4: Rudyard RAWS : 21 / 1 / 46 / 0.00 / 0.00
SBDM4: The Bear RAWS : 21 / 13 / 53 / 0.00 / 0.00
SCKM4: Silver Creek RAWS : 23 / 6 / 74 / 0.00 / 0.00
WLLM4: Wellston RAWS : 23 / -1 / 49 / 0.04 / 0.04

The following are preicpitation reports received by the National
Weather Service in Gaylord...valid for the time period ending
around 7 pm EST. All reports have been recorded in inches.

Spotter reports from Eastern Upper and Northern Lower Michigan:

WATER TIME SNOW
LOCATION RAIN SNOW EQUIV PERIOD DEPTH






$$